Location: Peterborough
(44.3091°N, 78.3197°W)
Time: 19:56:54
(UTC-04:00)

Vanguard 3 - Pass Details

Date: 23 March 2023
Orbit: 507 x 3246 km, 33.4° (Epoch: 06 June)

Event Time Altitude Azimuth Distance (km) Brightness Sun altitude
Exits shadow 02:57:11 27° 153° (SSE) 4,851 10.7 -39.8°
Maximum altitude 02:59:46 28° 142° (SE) 4,808 10.8 -39.6°
Drops below altitude 10° 03:13:56 10° 93° (E) 5,798 11.8 -38.1°
Sets 03:18:55 0° 83° (E) 6,525 12.3 -37.6°
